Regional Weather Roundup
Issued by NWS

Home | Current Version | Previous Version | Graphics & Text | Print | Product List | Glossary Off
Versions: 1 2 3 4 5 6 7 8 9 10 11 12 13 14 15 16 17 18 19 20 21 22 23 24 25 26 27 28 29 30 31 32 33 34 35 36 37 38 39 40 41 42 43 44 45 46 47 48 49 50

000
ASUS43 KMKX 280021
RWRWI

WISCONSIN REGIONAL WEATHER ROUNDUP
NATIONAL WEATHER SERVICE MILWAUKEE/SULLIVAN WI
600 PM CST THU NOV 27 2014

NOTE: "FAIR" INDICATES FEW OR NO CLOUDS BELOW 12,000 FEET WITH NO
SIGNIFICANT WEATHER AND/OR OBSTRUCTIONS TO VISIBILITY.

WIZ001-002-006>008-014>016-023>028-280100-
NORTHWEST WISCONSIN

CITY           SKY/WX    TMP DP  RH WIND       PRES   REMARKS
SUPERIOR ARPT  PTCLDY     3  -3  74 S5        30.38F WCI  -6
6HR MIN TEMP:   3; 6HR MAX TEMP:  11;

ASHLAND        CLEAR      0  -4  83 SW5       30.39S WCI -10
6HR MIN TEMP:  -2; 6HR MAX TEMP:  11;

HAYWARD        PTCLDY    -1  -5  82 CALM      30.35S
6HR MIN TEMP:  -1; 6HR MAX TEMP:   9;

SIREN          PTCLDY     3  -4  72 CALM      30.37F
6HR MIN TEMP:   3; 6HR MAX TEMP:  10;

CUMBERLAND     PTCLDY     3  -4  72 SW3       30.35F
RICE LAKE      PTCLDY     4  -5  67 CALM      30.38F
6HR MIN TEMP:   4; 6HR MAX TEMP:   9;

CHETEK         PTCLDY     0  -6  76 CALM      30.37F
6HR MIN TEMP:   0; 6HR MAX TEMP:   9;

LADYSMITH      CLEAR      4  -3  72 W5        30.37S WCI  -5
6HR MIN TEMP:   4; 6HR MAX TEMP:  11;

EAU CLAIRE     PTCLDY     3  -5  69 CALM      30.39S
6HR MIN TEMP:   2; 6HR MAX TEMP:   9;

MENOMONIE      PTCLDY     6  -4  62 CALM      30.40S
6HR MIN TEMP:   6; 6HR MAX TEMP:  11;

NEW RICHMOND   PTCLDY     6  -2  67 SE3       30.37F
6HR MIN TEMP:   4; 6HR MAX TEMP:  10;

OSCEOLA        PTCLDY     5  -2  74 CALM      30.41F
6HR MIN TEMP:   4; 6HR MAX TEMP:  10;

$$

WIZ003>005-009-010-017-018-280100-
NORTH CENTRAL WISCONSIN

CITY           SKY/WX    TMP DP  RH WIND       PRES   REMARKS
MANITOWISH WTR PTCLDY    -6  -8  88 CALM      30.29F FOG
6HR MIN TEMP:  -6; 6HR MAX TEMP:  10;

ARBOR VITAE    PTCLDY     2  -1  87 CALM      30.29S
6HR MIN TEMP:   1; 6HR MAX TEMP:  11;

WOODRUFF       PTCLDY     2  -1  87 CALM      30.29S
6HR MIN TEMP:   1; 6HR MAX TEMP:  11;

RHINELANDER    PTCLDY     0  -4  83 CALM      30.29F
6HR MIN TEMP:  -3; 6HR MAX TEMP:  11; 6HR PCP: TRACE;

EAGLE RIVER    MOCLDY     4  -2  78 CALM      30.28S
6HR MIN TEMP:   4; 6HR MAX TEMP:  11;

LAND O LAKES   FLURRIES  -4  -8  85 CALM      30.29S
6HR MIN TEMP:  -5; 6HR MAX TEMP:  13;

PHILLIPS       PTCLDY    -3  -6  87 CALM      30.30F
6HR MIN TEMP:  -3; 6HR MAX TEMP:  11;

TOMAHAWK       FAIR      -3  -6  85 CALM      30.30F
6HR MIN TEMP:  -3; 6HR MAX TEMP:  13;

MEDFORD        CLEAR      4  -4  70 SW3       30.32S
6HR MIN TEMP:   3; 6HR MAX TEMP:  11;

MERRILL        CLEAR      4  -1  76 W5        30.32F WCI  -5
6HR MIN TEMP:   4; 6HR MAX TEMP:  14;

$$

WIZ029-030-035-036-043>047-280100-
CENTRAL WISCONSIN

CITY           SKY/WX    TMP DP  RH WIND       PRES   REMARKS
WAUSAU         FAIR       7  -1  70 W6        30.33F WCI  -3
6HR MIN TEMP:   7; 6HR MAX TEMP:  15;

MOSINEE        CLEAR      5   1  85 W7        30.35F WCI  -7
MARSHFIELD     CLEAR      3  -5  69 NW3       30.34F
6HR MIN TEMP:   1; 6HR MAX TEMP:  10;

STEVENS POINT  CLEAR      4  -1  79 CALM      30.36F
6HR MIN TEMP:   4; 6HR MAX TEMP:  13;

WAUPACA        CLEAR     11   3  72 W7        30.39S WCI   0
6HR MIN TEMP:  11; 6HR MAX TEMP:  21;

WAUTOMA        CLEAR      5  -1  76 CALM      30.39F
6HR MIN TEMP:   6; 6HR MAX TEMP:  17;

WISC RAPIDS    CLEAR      6  -2  69 NW3       30.38F
6HR MIN TEMP:   6; 6HR MAX TEMP:  14;

CAMP DOUGLAS   CLEAR      4   1  91 W5        30.38F WCI  -6
6HR MIN TEMP:   4; 6HR MAX TEMP:  15;

$$

WIZ011>013-019>022-031-037>040-048>050-280100-
NORTHEAST WISCONSIN

CITY           SKY/WX    TMP DP  RH WIND       PRES   REMARKS
ANTIGO         CLEAR      1  -2  88 CALM      30.30S
6HR MIN TEMP:   0; 6HR MAX TEMP:  12;

SHAWANO        CLEAR     13   5  69 W3        30.36F
6HR MIN TEMP:  13; 6HR MAX TEMP:  19;

OCONTO         CLEAR      5   3  90 CALM      30.37S
6HR MIN TEMP:   5; 6HR MAX TEMP:  18;

STURGEON BAY   PTCLDY    16   1  53 NW8       30.35S WCI   5
6HR MIN TEMP:  16; 6HR MAX TEMP:  18;

GREEN BAY      CLEAR     12   3  67 W5        30.38R WCI   4
6HR MIN TEMP:  11; 6HR MAX TEMP:  19;

MANITOWOC      CLEAR     11   7  84 W7        30.39R WCI   0
6HR MIN TEMP:  11; 6HR MAX TEMP:  20;

APPLETON       CLEAR     10   3  72 NW6       30.36F WCI   1
CLINTONVILLE   CLEAR     10   3  72 W5        30.36F WCI   2
OSHKOSH        CLEAR     10   1  67 MISG      30.38S
6HR MIN TEMP:  10; 6HR MAX TEMP:  17;

$$

WIZ032>034-041-042-053>061-280100-
SOUTHWEST WISCONSIN

CITY           SKY/WX    TMP DP  RH WIND       PRES   REMARKS
LA CROSSE      PTCLDY     8  -2  63 NE3       30.42F
6HR MIN TEMP:   7; 6HR MAX TEMP:  15;

SPARTA         PTCLDY     1  -3  85 CALM      30.41S
6HR MIN TEMP:   1; 6HR MAX TEMP:  14;

VIROQUA        PTCLDY     7  -1  69 CALM      30.36S
6HR MIN TEMP:   5; 6HR MAX TEMP:  12;

BOSCOBEL       CLEAR      8  -1  66 CALM      30.42F
6HR MIN TEMP:   8; 6HR MAX TEMP:  19;

PRAIRIE DU CHI PTCLDY    11  -2  54 CALM      30.42F
6HR MIN TEMP:  11; 6HR MAX TEMP:  17;

PLATTEVILLE    CLEAR     13   0  55 CALM      30.39F
6HR MIN TEMP:  11; 6HR MAX TEMP:  19;

$$

WIZ056-057-062-063-064-067-068-280100-
SOUTH CENTRAL WISCONSIN

CITY           SKY/WX    TMP DP  RH WIND       PRES   REMARKS
REEDSBURG      CLEAR      8   2  76 CALM      30.38F
6HR MIN TEMP:   8; 6HR MAX TEMP:  15;

BARABOO/DELLS  CLEAR      5   1  81 CALM      30.37F
6HR MIN TEMP:   5; 6HR MAX TEMP:  16;

LONE ROCK      CLEAR      9  -1  64 CALM      30.41F
6HR MIN TEMP:   8; 6HR MAX TEMP:  21;

MINERAL POINT  CLEAR     12   0  57 CALM      30.37S
MADISON        CLEAR      9   5  84 CALM      30.39F
6HR MIN TEMP:   9; 6HR MAX TEMP:  20;

MIDDLETON      CLEAR      8   4  84 CALM      30.39F
6HR MIN TEMP:   5; 6HR MAX TEMP:  22;

WATERTOWN      PTCLDY    13   9  81 NW3       30.39S
6HR MIN TEMP:  13; 6HR MAX TEMP:  19;

MONROE         PTCLDY    16   7  67 W6        30.38S WCI   7
JANESVILLE     CLEAR     14   7  73 CALM      30.40S
$$

WIZ051-052-058>065-066-070>072-280100-
SOUTHEAST WISCONSIN

CITY           SKY/WX    TMP DP  RH WIND       PRES   REMARKS
MILWAUKEE      PTCLDY    18   8  65 W8        30.40S WCI   8
6HR MIN TEMP:  18; 6HR MAX TEMP:  23; 6HR PCP: TRACE;

WAUKESHA       MOCLDY    12   9  85 W6        30.39S WCI   3
MILWAUKEE/TIMM PTCLDY    16   9  73 W6        30.41R WCI   7
RACINE         PTCLDY    17   8  67 W7        30.41S WCI   8
6HR MIN TEMP:  17; 6HR MAX TEMP:  23; 6HR PCP: TRACE;

BURLINGTON     CLEAR     12   7  78 NW6       30.40S WCI   3
6HR MIN TEMP:  12; 6HR MAX TEMP:  19;

KENOSHA        FLURRIES  18  10  71 NW6       30.40S WCI  10
6HR MIN TEMP:  18; 6HR MAX TEMP:  22; 6HR PCP: TRACE;

FOND DU LAC    CLEAR     11   2  67 W6        30.39R WCI   1
6HR MIN TEMP:  10; 6HR MAX TEMP:  19; 6HR PCP: TRACE;

SHEBOYGAN      CLEAR      8   3  80 CALM      30.38R
6HR MIN TEMP:   7; 6HR MAX TEMP:  18;

WEST BEND      MOCLDY    14   9  79 W5        30.38S WCI   6
JUNEAU         CLEAR     10   6  82 CALM      30.39S
6HR MIN TEMP:  10; 6HR MAX TEMP:  18;

$$

LSZ147-162-280100-
LAKE SUPERIOR

STATION/POSITION TIME  TEMP    WIND        PRES    WAVE
                       AIR SEA DIR/SP/G            HT/PER
                 (UTC) (F)     (DEG/KT/KT) (MB)    (FT/S)
DEVILS ISLAND    0000   11     230/ 13/ 16 1030.0F
PORT WING        2300    6     170/  5/  7 1029.1F
SAXON HARBOR     0006    3      CALM  / 26 1028.8F
$$

LMZ867-665-643>646-280100-
LAKE MICHIGAN

STATION/POSITION TIME  TEMP    WIND        PRES    WAVE



USA.gov is the U.S. government's official web portal to all federal, state and local government web resources and services.